Tracking 20241 objects as of 25-Jan-2020
HD Live streaming from Space Station
objects crossing your sky now

FENGYUN 1C DEB

Track FENGYUN 1C DEB now!
10-day predictions


NORAD ID: 36173
Int'l Code: 1999-025DSW
Perigee: 716.0 km
Apogee: 939.7 km
Inclination: 98.3 °
Period: 101.3 minutes
Semi major axis: 7198 km
RCS: 0.0079 m2 (small)
Launch date: May 10, 1999
Source: People's Republic of China (PRC)
Launch site: Taiyaun Space Center, China (TSC)

Note: This is SATELLITE DEBRIS
aabbcc
Your satellite tracking list
Your tracking list is empty




NASA's NSSDC Master Catalog

Two Line Element Set (TLE):
1 36173U 99025DSW 20023.94773714  .00000060  00000-0  40874-4 0  9997
2 36173  98.2661 106.3377 0155392  21.1342 339.6164 14.21381299630112
Source of the keplerian elements: AFSPC